Location: Unspecified
(0.0000°N, 0.0000°E)
Time: 23:08:09
(UTC+00:00)

deb Explorer IX - Pass Details

Date: 16 December 2018
Orbit: 538 x 1115 km, 38.8° (Epoch: 18 January)

Event Time Altitude Azimuth Distance (km) Brightness Sun altitude
Rises 11:58:47 0° 198° (SSW) 3,786 ? 66.7°
Reaches altitude 10° 12:03:34 10° 170° (S) 2,707 ? 66.6°
Maximum altitude 12:06:04 12° 147° (SSE) 2,464 ? 66.5°
Drops below altitude 10° 12:08:27 10° 124° (SE) 2,548 ? 66.5°
Sets 12:12:36 0° 94° (E) 3,330 ? 66.3°
